Prerov, Czech Republic

1:52 PM CET on February 27, 2017 (GMT +0100)
Prerov

Weather History for LKPO - April, 2013

Change the Weather History Date:

Tuesday, April 16, 2013

  Actual Average Record
Temperature  
Mean Temperature 50 °F -  
Max Temperature 66 °F - - ()
Min Temperature 35 °F - - ()
Degree Days  
Heating Degree Days 14    
Moisture  
Dew Point 34 °F    
Average Humidity 52    
Maximum Humidity 87    
Minimum Humidity 23    
Precipitation  
Precipitation 0.00 in - - ()
Sea Level Pressure  
Sea Level Pressure 30.22 in    
Wind  
Wind Speed 6 mph ()    
Max Wind Speed 15 mph    
Max Gust Speed -    
T = Trace of Precipitation, MM = Missing Value Source: Averaged Metar Reports

Daily Weather History Graph

Daily Weather History Graph

Search for Another Location

Airport or City:

Trip Planner

Search our weather history database for the weather conditions in past years. The results will help you decide how hot, cold, wet, or windy it might be!

Date:

Astronomy

Apr. 16, 2013 Rise Set
Actual Time 5:56 AM CEST 7:44 PM CEST
Civil Twilight 5:22 AM CEST 8:18 PM CEST
Nautical Twilight 4:41 AM CEST 9:00 PM CEST
Astronomical Twilight 3:55 AM CEST 9:46 PM CEST
Moon 9:44 AM CEST (4/16) 12:44 AM CEST (4/16)
Length of Visible Light 14h 55m
Length of Day
13h 48m
Waxing Crescent, 31% of the Moon is Illuminated
Apr 16
Waxing Crescent
Apr 18
First Quarter
Apr 25
Full
May 2
Last Quarter
May 10
New

Hourly Weather History & Observations

Time (CEST) Temp. Windchill Dew Point Humidity Pressure Visibility Wind Dir Wind Speed Gust Speed Precip Events Conditions
12:00 AM 50.0 °F - 33.8 °F 54% 30.24 in - SSE 3.5 mph - N/A   Clear
1:00 AM 48.2 °F - 33.8 °F 58% 30.24 in - Variable 2.3 mph - N/A   Clear
2:00 AM 42.8 °F 38.6 °F 35.6 °F 76% 30.24 in - East 6.9 mph - N/A   Clear
3:00 AM 41.0 °F 36.4 °F 35.6 °F 81% 30.24 in - East 6.9 mph - N/A   Clear
5:00 AM 35.6 °F - 32.0 °F 87% 30.24 in - Calm Calm - N/A   Clear
6:00 AM 37.4 °F 32.8 °F 33.8 °F 87% 30.24 in - East 5.8 mph - N/A   Clear
7:00 AM 39.2 °F 37.0 °F 35.6 °F 87% 30.24 in - East 3.5 mph - N/A   Clear
8:00 AM 46.4 °F - 39.2 °F 76% 30.24 in - Variable 1.2 mph - N/A   Clear
9:00 AM 51.8 °F - 39.2 °F 62% 30.24 in - South 4.6 mph - N/A   Clear
10:00 AM 57.2 °F - 37.4 °F 48% 30.24 in - South 13.8 mph - N/A   Clear
11:00 AM 59.0 °F - 35.6 °F 42% 30.24 in - South 13.8 mph - N/A   Clear
12:00 PM 60.8 °F - 37.4 °F 42% 30.24 in - South 10.4 mph - N/A   Clear
1:00 PM 62.6 °F - 32.0 °F 32% 30.21 in - SSW 12.7 mph - N/A   Clear
2:00 PM 64.4 °F - 30.2 °F 28% 30.21 in - South 11.5 mph - N/A   Clear
3:00 PM 66.2 °F - 32.0 °F 28% 30.21 in - South 15.0 mph - N/A   Clear
4:00 PM 66.2 °F - 26.6 °F 23% 30.21 in - South 12.7 mph - N/A   Clear
5:00 PM 66.2 °F - 28.4 °F 24% 30.18 in - South 10.4 mph - N/A   Clear
6:00 PM 64.4 °F - 28.4 °F 26% 30.18 in - South 9.2 mph - N/A   Clear
7:00 PM 62.6 °F - 32.0 °F 32% 30.18 in - South 5.8 mph - N/A   Clear
8:00 PM 59.0 °F - 35.6 °F 42% 30.18 in - South 2.3 mph - N/A   Clear
9:00 PM 55.4 °F - 37.4 °F 51% 30.21 in - South 5.8 mph - N/A   Clear
10:00 PM 55.4 °F - 35.6 °F 47% 30.21 in - SSE 5.8 mph - N/A   Clear
11:00 PM 51.8 °F - 35.6 °F 54% 30.21 in - Calm Calm - N/A   Clear